TimeCST,TemperatureF,Dew PointF,Humidity,Sea Level PressureIn,VisibilityMPH,Wind Direction,Wind SpeedMPH,Gust SpeedMPH,PrecipitationIn,Events,Conditions,WindDirDegrees,DateUTC
12:54 AM,41.0,28.0,60,30.36,10.0,SE,8.1,-,N/A,,Clear,140,2012-11-18 06:54:00
1:54 AM,39.9,27.0,60,30.36,10.0,SSE,9.2,-,N/A,,Clear,150,2012-11-18 07:54:00
2:54 AM,39.0,26.1,60,30.36,10.0,SSE,6.9,-,N/A,,Clear,150,2012-11-18 08:54:00
3:54 AM,39.0,26.1,60,30.34,10.0,SE,9.2,-,N/A,,Clear,140,2012-11-18 09:54:00
4:54 AM,37.9,26.1,62,30.35,10.0,SE,9.2,-,N/A,,Clear,140,2012-11-18 10:54:00
5:54 AM,37.0,26.1,65,30.35,10.0,SE,8.1,-,N/A,,Clear,140,2012-11-18 11:54:00
6:54 AM,37.0,26.1,65,30.35,10.0,SE,10.4,-,N/A,,Clear,130,2012-11-18 12:54:00
7:54 AM,39.0,28.9,67,30.35,10.0,SE,9.2,-,N/A,,Clear,130,2012-11-18 13:54:00
8:54 AM,46.0,30.9,56,30.35,10.0,SSE,8.1,-,N/A,,Clear,160,2012-11-18 14:54:00
9:54 AM,50.0,30.9,48,30.35,10.0,South,10.4,-,N/A,,Clear,170,2012-11-18 15:54:00
10:54 AM,55.0,30.0,38,30.35,10.0,South,6.9,-,N/A,,Clear,180,2012-11-18 16:54:00
11:54 AM,59.0,26.1,28,30.32,10.0,South,8.1,-,N/A,,Clear,180,2012-11-18 17:54:00
12:54 PM,61.0,28.9,30,30.29,10.0,SSW,8.1,-,N/A,,Clear,200,2012-11-18 18:54:00
1:54 PM,63.0,30.0,29,30.26,10.0,South,8.1,-,N/A,,Clear,180,2012-11-18 19:54:00
2:54 PM,64.0,32.0,30,30.24,10.0,SE,9.2,-,N/A,,Clear,140,2012-11-18 20:54:00
3:54 PM,60.1,30.0,32,30.24,10.0,SE,6.9,-,N/A,,Clear,130,2012-11-18 21:54:00
4:54 PM,57.9,27.0,31,30.24,10.0,SE,4.6,-,N/A,,Clear,130,2012-11-18 22:54:00
5:54 PM,55.9,28.0,34,30.25,10.0,ESE,6.9,-,N/A,,Clear,120,2012-11-18 23:54:00
6:54 PM,55.9,26.1,32,30.26,10.0,ESE,6.9,-,N/A,,Clear,120,2012-11-19 00:54:00
7:54 PM,52.0,27.0,38,30.27,10.0,SE,6.9,-,N/A,,Clear,140,2012-11-19 01:54:00
8:54 PM,51.1,27.0,39,30.27,10.0,SE,6.9,-,N/A,,Clear,140,2012-11-19 02:54:00
9:54 PM,50.0,28.9,44,30.26,10.0,SE,8.1,-,N/A,,Clear,130,2012-11-19 03:54:00
10:54 PM,51.1,30.0,44,30.25,10.0,SSE,9.2,-,N/A,,Clear,150,2012-11-19 04:54:00
11:54 PM,50.0,32.0,50,30.24,10.0,SSE,9.2,-,N/A,,Clear,160,2012-11-19 05:54:00